Terminal Aerodrome Forecast
Issued by NWS Cleveland, OH

Home | Current Version | Previous Version | Graphics & Text | Print | Product List | Glossary On
Versions: 1 2 3 4 5 6 7 8 9 10 11 12 13 14 15 16 17 18 19 20 21
000
FTUS41 KCLE 251700
TAFYNG
TAF
KYNG 251731Z 2518/2618 14008KT P6SM SCT035
     FM260100 14004KT P6SM BKN250
     FM261200 16006KT P6SM BKN250
     FM261500 21008KT P6SM SCT035 BKN250=

USA.gov is the U.S. government's official web portal to all federal, state and local government web resources and services.